This is the latest recevied weather packets stored in our database for station/object OE2ATN. If no packets are shown the sender has not sent any weather packets the latest 10 day(s).
| Time | Temp. | Humidity | Pressure | Rain* | Wind** | Luminosity | Snow |
|---|---|---|---|---|---|---|---|
| 1778054422 | 11.67° C | 73% | 1014.6 hPa | 0 mm | - | - | - |
| 1778054122 | 11.67° C | 74% | 1014.8 hPa | 0 mm | - | - | - |
| 1778053822 | 11.67° C | 74% | 1014.8 hPa | 0 mm | - | - | - |
| 1778053522 | 11.67° C | 73% | 1014.8 hPa | 0 mm | - | - | - |
| 1778053222 | 11.67° C | 75% | 1014.8 hPa | 0 mm | - | - | - |
| 1778052922 | 11.67° C | 74% | 1015 hPa | 0 mm | - | - | - |
| 1778052621 | 11.67° C | 75% | 1015 hPa | 0 mm | - | - | - |
| 1778052321 | 11.11° C | 75% | 1015 hPa | 0 mm | - | - | - |
| 1778052022 | 11.11° C | 75% | 1015 hPa | 0 mm | - | - | - |
| 1778051722 | 11.11° C | 75% | 1015.2 hPa | 0 mm | - | - | - |
| 1778051421 | 11.11° C | 75% | 1015.3 hPa | 0 mm | - | - | - |
| 1778051123 | 11.11° C | 74% | 1015.3 hPa | 0 mm | - | - | - |
| 1778050821 | 11.11° C | 74% | 1015.3 hPa | 0 mm | - | - | - |
| 1778050521 | 11.11° C | 74% | 1015.4 hPa | 0 mm | - | - | - |
| 1778050221 | 10.56° C | 75% | 1015.7 hPa | 0 mm | - | - | - |
| 1778049921 | 10.56° C | 74% | 1015.6 hPa | 0 mm | - | - | - |
| 1778049621 | 10° C | 73% | 1015.8 hPa | 0 mm | - | - | - |
| 1778049320 | 9.44° C | 68% | 1015.9 hPa | 0 mm | - | - | - |
| 1778049020 | 8.89° C | 67% | 1016 hPa | 0 mm | - | - | - |
| 1778048720 | 8.89° C | 67% | 1016.1 hPa | 0 mm | - | - | - |
| 1778048420 | 8.89° C | 49% | 1016 hPa | 0 mm | - | - | - |
| 1778048120 | 7.78° C | 45% | 1016.1 hPa | 0 mm | - | - | - |
| 1778047820 | 7.22° C | 41% | 1016.2 hPa | 0 mm | - | - | - |
| 1778047519 | 7.22° C | 34% | 1016.3 hPa | 0 mm | - | - | - |
| 1778047219 | 6.67° C | 30% | 1016.4 hPa | 0 mm | - | - | - |
* Rain latest hour (hover to see other rain measurements)
** Current wind speed in m/s (hover to see current wind gust speed)